TimeCDT,TemperatureF,Dew PointF,Humidity,Sea Level PressureIn,VisibilityMPH,Wind Direction,Wind SpeedMPH,Gust SpeedMPH,PrecipitationIn,Events,Conditions,WindDirDegrees,DateUTC
12:53 AM,44.1,42.1,93,29.77,7.0,SE,11.5,-,N/A,,Clear,140,2012-10-21 05:53:00
1:53 AM,43.0,41.0,93,29.77,7.0,SE,11.5,-,N/A,,Clear,140,2012-10-21 06:53:00
2:53 AM,43.0,39.9,89,29.76,8.0,SE,9.2,-,N/A,,Clear,140,2012-10-21 07:53:00
3:53 AM,42.1,39.9,92,29.76,10.0,SE,8.1,-,N/A,,Clear,130,2012-10-21 08:53:00
4:53 AM,42.1,39.9,92,29.75,10.0,ESE,9.2,-,N/A,,Clear,120,2012-10-21 09:53:00
5:53 AM,42.1,39.9,92,29.75,10.0,ESE,10.4,-,N/A,,Clear,120,2012-10-21 10:53:00
6:53 AM,42.1,39.9,92,29.73,10.0,SE,15.0,-,N/A,,Clear,140,2012-10-21 11:53:00
7:53 AM,43.0,39.9,89,29.73,10.0,SE,13.8,-,N/A,,Clear,140,2012-10-21 12:53:00
8:53 AM,45.0,42.1,90,29.73,10.0,SE,12.7,-,N/A,,Clear,140,2012-10-21 13:53:00
9:53 AM,48.9,44.1,83,29.75,10.0,SSE,12.7,-,N/A,,Clear,160,2012-10-21 14:53:00
10:53 AM,54.0,45.0,72,29.76,10.0,South,9.2,-,N/A,,Clear,170,2012-10-21 15:53:00
11:53 AM,57.0,46.9,69,29.75,10.0,SSE,9.2,-,N/A,,Clear,160,2012-10-21 16:53:00
12:53 PM,60.1,46.9,62,29.76,10.0,SSW,8.1,-,N/A,,Clear,210,2012-10-21 17:53:00
1:53 PM,61.0,46.9,60,29.77,10.0,West,8.1,-,N/A,,Clear,270,2012-10-21 18:53:00
2:53 PM,62.1,46.9,58,29.78,10.0,WNW,10.4,-,N/A,,Clear,290,2012-10-21 19:53:00
3:53 PM,63.0,46.9,56,29.80,10.0,WNW,6.9,-,N/A,,Clear,290,2012-10-21 20:53:00
4:53 PM,61.0,46.9,60,29.81,10.0,North,8.1,-,N/A,,Clear,360,2012-10-21 21:53:00
5:53 PM,57.0,46.0,67,29.85,10.0,NNW,8.1,-,N/A,,Clear,330,2012-10-21 22:53:00
6:53 PM,53.1,46.0,77,29.87,10.0,NNW,6.9,-,N/A,,Clear,330,2012-10-21 23:53:00
7:53 PM,51.1,46.0,83,29.90,10.0,NW,9.2,-,N/A,,Clear,320,2012-10-22 00:53:00
8:53 PM,50.0,45.0,83,29.91,10.0,NW,9.2,-,N/A,,Clear,320,2012-10-22 01:53:00
9:53 PM,48.0,45.0,89,29.93,10.0,NNW,6.9,-,N/A,,Clear,330,2012-10-22 02:53:00
10:53 PM,46.9,44.1,90,29.93,9.0,NW,5.8,-,N/A,,Clear,320,2012-10-22 03:53:00
11:53 PM,48.0,44.1,86,29.93,10.0,NNW,6.9,-,N/A,,Clear,330,2012-10-22 04:53:00